• In Österreich
  • Länderverzeichnis
  • Für 7 Tage
  • Wassertemperatur
  • Satellitenkarten
  • Wetterkarte
  • News
  • Widgets
  • user-avatar
    Anmelden

    Stündliche Wetter Elizarovo-2

    Heute, 15 August, Mittwoch

    Zeit Temperatur Niederschläge Wind Luftdruck Luftfeuchtigkeit
    00:00 +16°C° 0 mm 2 m/S 735 mmHg 91%
    01:00 +15°C° 0 mm 2 m/S 735 mmHg 93%
    02:00 +15°C° 0 mm 2 m/S 735 mmHg 96%
    03:00 +16°C° 0,1 mm 2 m/S 735 mmHg 95%
    04:00 +16°C° 0,1 mm 3 m/S 734 mmHg 95%
    05:00 +16°C° 0,1 mm 3 m/S 734 mmHg 94%
    06:00 +18°C° 0,2 mm 3 m/S 734 mmHg 91%
    07:00 +19°C° 0,2 mm 4 m/S 733 mmHg 88%
    08:00 +20°C° 0,2 mm 4 m/S 733 mmHg 85%
    09:00 +21°C° 1,1 mm 4 m/S 733 mmHg 84%
    10:00 +22°C° 1,1 mm 4 m/S 733 mmHg 82%
    11:00 +23°C° 1,1 mm 4 m/S 733 mmHg 81%
    12:00 +23°C° 1 mm 4 m/S 733 mmHg 81%
    13:00 +23°C° 1 mm 4 m/S 733 mmHg 82%
    14:00 +22°C° 1 mm 4 m/S 733 mmHg 83%
    15:00 +22°C° 0,4 mm 4 m/S 733 mmHg 83%
    16:00 +22°C° 0,4 mm 3 m/S 733 mmHg 84%
    17:00 +21°C° 0,4 mm 3 m/S 733 mmHg 85%
    18:00 +20°C° 0,1 mm 3 m/S 734 mmHg 88%
    19:00 +19°C° 0,1 mm 3 m/S 734 mmHg 91%
    20:00 +18°C° 0,1 mm 2 m/S 734 mmHg 94%
    21:00 +17°C° 0 mm 2 m/S 734 mmHg 95%
    22:00 +17°C° 0 mm 2 m/S 734 mmHg 96%
    23:00 +16°C° 0 mm 2 m/S 735 mmHg 97%

    Morgen, 16 August, Donnerstag

    Zeit Temperatur Niederschläge Wind Luftdruck Luftfeuchtigkeit
    00:00 +16°C° 0 mm 2 m/S 735 mmHg 97%
    01:00 +15°C° 0 mm 2 m/S 735 mmHg 97%
    02:00 +15°C° 0 mm 1 m/S 735 mmHg 97%
    03:00 +15°C° 0 mm 1 m/S 736 mmHg 98%
    04:00 +15°C° 0 mm 1 m/S 736 mmHg 98%
    05:00 +15°C° 0 mm 1 m/S 736 mmHg 98%
    06:00 +16°C° 0 mm 1 m/S 736 mmHg 94%
    07:00 +18°C° 0 mm 1 m/S 737 mmHg 91%
    08:00 +20°C° 0 mm 1 m/S 737 mmHg 87%
    09:00 +21°C° 0,3 mm 1 m/S 737 mmHg 84%
    10:00 +22°C° 0,3 mm 1 m/S 737 mmHg 80%
    11:00 +23°C° 0,3 mm 1 m/S 738 mmHg 77%
    12:00 +23°C° 0,6 mm 1 m/S 738 mmHg 77%
    13:00 +23°C° 0,6 mm 1 m/S 738 mmHg 77%
    14:00 +23°C° 0,6 mm 2 m/S 738 mmHg 77%
    15:00 +21°C° 0,5 mm 2 m/S 738 mmHg 78%
    16:00 +21°C° 0,5 mm 2 m/S 738 mmHg 80%
    17:00 +21°C° 0,5 mm 2 m/S 738 mmHg 81%
    18:00 +19°C° 0 mm 2 m/S 738 mmHg 85%
    19:00 +18°C° 0 mm 2 m/S 739 mmHg 90%
    20:00 +16°C° 0 mm 2 m/S 739 mmHg 94%
    21:00 +15°C° 0 mm 2 m/S 739 mmHg 95%
    22:00 +15°C° 0 mm 2 m/S 739 mmHg 95%
    23:00 +14°C° 0 mm 2 m/S 739 mmHg 96%

    übermorgen, 17 August, Freitag

    Zeit Temperatur Niederschläge Wind Luftdruck Luftfeuchtigkeit
    00:00 +14°C° 0 mm 2 m/S 740 mmHg 96%
    01:00 +13°C° 0 mm 2 m/S 740 mmHg 96%
    02:00 +13°C° 0 mm 2 m/S 740 mmHg 96%
    03:00 +13°C° 0 mm 2 m/S 740 mmHg 96%
    04:00 +12°C° 0 mm 2 m/S 741 mmHg 97%
    05:00 +12°C° 0 mm 2 m/S 741 mmHg 97%
    06:00 +14°C° 0 mm 2 m/S 741 mmHg 91%
    07:00 +15°C° 0 mm 2 m/S 742 mmHg 86%
    08:00 +17°C° 0 mm 2 m/S 742 mmHg 80%
    09:00 +19°C° 0 mm 2 m/S 742 mmHg 73%
    10:00 +20°C° 0 mm 3 m/S 742 mmHg 66%
    11:00 +22°C° 0 mm 3 m/S 742 mmHg 58%
    12:00 +22°C° 0 mm 3 m/S 742 mmHg 57%
    13:00 +24°C° 0 mm 3 m/S 742 mmHg 55%
    14:00 +24°C° 0 mm 3 m/S 742 mmHg 54%
    15:00 +24°C° 0 mm 2 m/S 742 mmHg 57%
    16:00 +24°C° 0 mm 2 m/S 742 mmHg 60%
    17:00 +23°C° 0 mm 2 m/S 741 mmHg 63%
    18:00 +20°C° 0 mm 2 m/S 742 mmHg 70%
    19:00 +18°C° 0 mm 2 m/S 742 mmHg 77%
    20:00 +16°C° 0 mm 2 m/S 742 mmHg 84%
    21:00 +16°C° 0 mm 2 m/S 742 mmHg 85%
    22:00 +15°C° 0 mm 2 m/S 742 mmHg 87%
    23:00 +14°C° 0 mm 2 m/S 742 mmHg 88%

    18 August, Samstag

    Zeit Temperatur Niederschläge Wind Luftdruck Luftfeuchtigkeit
    00:00 +14°C° 0 mm 2 m/S 742 mmHg 90%
    01:00 +14°C° 0 mm 2 m/S 742 mmHg 91%
    02:00 +13°C° 0 mm 2 m/S 742 mmHg 92%
    03:00 +13°C° 0 mm 2 m/S 742 mmHg 92%
    04:00 +13°C° 0 mm 2 m/S 742 mmHg 93%
    05:00 +13°C° 0 mm 2 m/S 742 mmHg 93%
    06:00 +15°C° 0 mm 2 m/S 742 mmHg 86%
    07:00 +17°C° 0 mm 2 m/S 743 mmHg 79%
    08:00 +19°C° 0 mm 2 m/S 743 mmHg 72%
    09:00 +20°C° 0 mm 3 m/S 743 mmHg 66%
    10:00 +22°C° 0 mm 3 m/S 743 mmHg 60%
    11:00 +25°C° 0 mm 3 m/S 743 mmHg 55%
    12:00 +25°C° 0 mm 3 m/S 742 mmHg 54%
    13:00 +26°C° 0 mm 3 m/S 742 mmHg 53%
    14:00 +26°C° 0 mm 3 m/S 742 mmHg 52%
    15:00 +25°C° 0 mm 3 m/S 741 mmHg 55%
    16:00 +25°C° 0 mm 3 m/S 741 mmHg 59%
    17:00 +25°C° 0 mm 2 m/S 741 mmHg 62%
    18:00 +23°C° 0 mm 2 m/S 741 mmHg 69%
    19:00 +19°C° 0 mm 2 m/S 741 mmHg 75%
    20:00 +17°C° 0 mm 2 m/S 741 mmHg 82%
    21:00 +17°C° 0 mm 2 m/S 741 mmHg 83%
    22:00 +16°C° 0 mm 2 m/S 741 mmHg 85%
    23:00 +15°C° 0 mm 2 m/S 741 mmHg 87%

    19 August, Sonntag

    Zeit Temperatur Niederschläge Wind Luftdruck Luftfeuchtigkeit
    00:00 +15°C° 0 mm 2 m/S 741 mmHg 88%
    01:00 +15°C° 0 mm 2 m/S 741 mmHg 90%
    02:00 +14°C° 0 mm 2 m/S 741 mmHg 91%
    03:00 +14°C° 0 mm 2 m/S 741 mmHg 91%
    04:00 +14°C° 0 mm 2 m/S 741 mmHg 91%
    05:00 +14°C° 0 mm 2 m/S 740 mmHg 90%
    06:00 +14°C° 0 mm 3 m/S 740 mmHg 83%
    07:00 +17°C° 0 mm 3 m/S 740 mmHg 76%
    08:00 +18°C° 0 mm 3 m/S 740 mmHg 69%
    09:00 +20°C° 0 mm 4 m/S 740 mmHg 65%
    10:00 +21°C° 0 mm 4 m/S 740 mmHg 61%
    11:00 +23°C° 0 mm 4 m/S 740 mmHg 57%
    12:00 +23°C° 0 mm 4 m/S 739 mmHg 57%
    13:00 +25°C° 0 mm 4 m/S 739 mmHg 57%
    14:00 +25°C° 0 mm 4 m/S 738 mmHg 57%
    15:00 +23°C° 0,1 mm 4 m/S 738 mmHg 61%
    16:00 +24°C° 0,1 mm 3 m/S 738 mmHg 64%
    17:00 +24°C° 0,1 mm 3 m/S 738 mmHg 68%
    18:00 +21°C° 0,4 mm 3 m/S 737 mmHg 75%
    19:00 +19°C° 0,4 mm 2 m/S 737 mmHg 82%
    20:00 +18°C° 0,4 mm 2 m/S 737 mmHg 89%
    21:00 +17°C° 0 mm 2 m/S 737 mmHg 91%
    22:00 +17°C° 0 mm 2 m/S 737 mmHg 93%
    23:00 +16°C° 0 mm 2 m/S 737 mmHg 95%

    20 August, Montag

    Zeit Temperatur Niederschläge Wind Luftdruck Luftfeuchtigkeit
    00:00 +16°C° 0,1 mm 2 m/S 737 mmHg 96%
    01:00 +15°C° 0,1 mm 2 m/S 737 mmHg 97%
    02:00 +14°C° 0,1 mm 2 m/S 737 mmHg 97%
    03:00 +14°C° 0 mm 2 m/S 737 mmHg 98%
    04:00 +14°C° 0 mm 2 m/S 737 mmHg 98%
    05:00 +13°C° 0 mm 2 m/S 737 mmHg 98%
    06:00 +14°C° 0 mm 2 m/S 738 mmHg 94%
    07:00 +16°C° 0 mm 2 m/S 738 mmHg 90%
    08:00 +17°C° 0 mm 2 m/S 738 mmHg 86%
    09:00 +18°C° 0 mm 3 m/S 738 mmHg 76%
    10:00 +19°C° 0 mm 3 m/S 738 mmHg 67%
    11:00 +20°C° 0 mm 3 m/S 739 mmHg 58%
    12:00 +20°C° 0 mm 3 m/S 739 mmHg 56%
    13:00 +21°C° 0 mm 3 m/S 739 mmHg 55%
    14:00 +21°C° 0 mm 3 m/S 738 mmHg 53%
    15:00 +21°C° 0 mm 3 m/S 739 mmHg 56%
    16:00 +20°C° 0 mm 2 m/S 739 mmHg 58%
    17:00 +20°C° 0 mm 2 m/S 739 mmHg 61%
    18:00 +18°C° 0 mm 2 m/S 739 mmHg 67%
    19:00 +16°C° 0 mm 2 m/S 739 mmHg 73%
    20:00 +14°C° 0 mm 2 m/S 739 mmHg 79%
    21:00 +14°C° 0 mm 2 m/S 739 mmHg 81%
    22:00 +13°C° 0 mm 2 m/S 739 mmHg 83%
    23:00 +12°C° 0 mm 1 m/S 739 mmHg 85%
    Mehr zeigen